TimeCST,TemperatureF,Dew PointF,Humidity,Sea Level PressureIn,VisibilityMPH,Wind Direction,Wind SpeedMPH,Gust SpeedMPH,PrecipitationIn,Events,Conditions,WindDirDegrees,DateUTC
12:56 AM,3.9,1.0,88,30.18,-9999.0,SE,3.5,-,N/A,,Unknown,130,2012-12-22 06:56:00
1:56 AM,3.9,-0.0,84,30.16,-9999.0,SSE,3.5,-,N/A,,Unknown,160,2012-12-22 07:56:00
2:56 AM,5.0,1.9,87,30.14,-9999.0,SSW,4.6,-,N/A,,Unknown,210,2012-12-22 08:56:00
3:56 AM,5.0,1.0,84,30.14,-9999.0,SSE,5.8,-,N/A,,Unknown,150,2012-12-22 09:56:00
4:56 AM,6.1,1.9,83,30.12,-9999.0,Calm,Calm,-,N/A,,Unknown,0,2012-12-22 10:56:00
5:56 AM,5.0,1.9,87,30.12,-9999.0,NNE,3.5,-,N/A,,Unknown,20,2012-12-22 11:56:00
6:56 AM,5.0,1.0,84,30.12,-9999.0,NNW,5.8,-,N/A,,Unknown,340,2012-12-22 12:56:00
7:56 AM,5.0,1.0,84,30.13,-9999.0,NW,4.6,-,N/A,,Unknown,320,2012-12-22 13:56:00
8:56 AM,7.0,3.0,84,30.15,-9999.0,North,5.8,-,N/A,,Unknown,350,2012-12-22 14:56:00
9:56 AM,12.0,8.1,84,30.16,-9999.0,North,16.1,-,N/A,,Unknown,350,2012-12-22 15:56:00
10:56 AM,12.0,7.0,80,30.18,-9999.0,North,20.7,-,N/A,,Unknown,360,2012-12-22 16:56:00
11:56 AM,12.9,7.0,77,30.18,-9999.0,North,19.6,-,N/A,,Unknown,360,2012-12-22 17:56:00
12:56 PM,14.0,9.0,80,30.17,-9999.0,North,19.6,-,N/A,,Unknown,10,2012-12-22 18:56:00
1:56 PM,15.1,9.0,77,30.17,-9999.0,North,20.7,-,N/A,,Unknown,360,2012-12-22 19:56:00
2:56 PM,15.1,9.0,77,30.18,-9999.0,North,24.2,-,N/A,,Unknown,10,2012-12-22 20:56:00
3:56 PM,12.9,8.1,81,30.21,-9999.0,North,20.7,-,N/A,,Unknown,360,2012-12-22 21:56:00
4:56 PM,10.9,7.0,84,30.24,-9999.0,North,16.1,-,N/A,,Unknown,360,2012-12-22 22:56:00
5:56 PM,10.0,6.1,84,30.26,-9999.0,North,12.7,-,N/A,,Unknown,360,2012-12-22 23:56:00
6:56 PM,9.0,5.0,84,30.26,-9999.0,North,13.8,-,N/A,,Unknown,350,2012-12-23 00:56:00
7:56 PM,8.1,3.9,83,30.27,-9999.0,North,12.7,-,N/A,,Unknown,360,2012-12-23 01:56:00
8:56 PM,7.0,1.9,80,30.27,-9999.0,North,15.0,-,N/A,,Unknown,360,2012-12-23 02:56:00
9:56 PM,6.1,1.9,83,30.26,-9999.0,North,16.1,-,N/A,,Unknown,360,2012-12-23 03:56:00
10:56 PM,5.0,1.0,84,30.26,-9999.0,North,13.8,-,N/A,,Unknown,350,2012-12-23 04:56:00
11:56 PM,5.0,1.0,84,30.26,-9999.0,North,11.5,-,N/A,,Unknown,350,2012-12-23 05:56:00